Location: Oshawa
(43.9000°N, 78.8670°W)
Time: 08:05:23
(UTC-04:00)

Transit 2A Rocket - Visible Passes

Search period start: 21 August 2017 00:00
Search period end: 31 August 2017 00:00
Orbit: 587 x 917 km, 66.7° (Epoch: 20 August)

Date Brightness Start Highest point End Pass type
(mag) Time Alt. Az. Time Alt. Az. Time Alt. Az.
22 Aug 6.7 05:44:06 10° SSE 05:48:07 29° ESE 05:52:26 10° NE visible
23 Aug 7.3 05:03:10 10° SE 05:06:04 16° ESE 05:09:07 10° ENE visible
25 Aug 5.9 05:18:51 10° S 05:23:16 42° ESE 05:28:08 10° NE visible
26 Aug 6.8 04:37:22 10° SSE 04:41:08 24° ESE 04:45:12 10° NE visible
27 Aug 7.3 03:56:49 10° SE 03:59:08 14° ESE 04:01:33 10° ENE visible
27 Aug 4.9 05:36:10 10° SW 05:40:51 77° WNW 05:46:10 10° NNE visible
28 Aug 5.2 04:55:20 21° SSW 04:58:29 63° ESE 05:03:40 10° NE visible
29 Aug 6.1 04:14:26 26° SSE 04:16:16 35° ESE 04:20:58 10° NE visible
29 Aug 5.8 05:54:24 10° WSW 05:58:52 34° NW 06:03:45 10° NNE visible
30 Aug 6.7 03:33:30 20° ESE 03:34:11 20° ESE 03:37:53 10° ENE visible
30 Aug 5.1 05:13:26 24° WSW 05:16:15 55° NW 05:21:30 10° NNE visible
